When you browse on this site, cookies collect data to enhance your experience and personalize the content and advertising you see.
Visit our Privacy Policy to learn more. By continuing to use the site, you agree to this use of cookies and data.
  • In Romania
  • List of Countries
  • For 7 days
  • Water Temperature
  • Satellite Maps
  • Weather Map
  • Weather Widgets
  • user-avatar
    Login

    Hourly Weather Marly-le-Roi

    Today, 20 June, Thursday

    Time Temperature Precipitation Wind Pressure Humidity
    00:00 +16°C° 0 mm 1 mps 746 mmHg 80%
    01:00 +16°C° 0 mm 1 mps 746 mmHg 82%
    02:00 +16°C° 0 mm 2 mps 746 mmHg 83%
    03:00 +15°C° 0 mm 2 mps 746 mmHg 85%
    04:00 +15°C° 0.1 mm 2 mps 746 mmHg 85%
    05:00 +15°C° 0.1 mm 2 mps 747 mmHg 85%
    06:00 +16°C° 0.1 mm 3 mps 747 mmHg 84%
    07:00 +16°C° 0.2 mm 3 mps 747 mmHg 82%
    08:00 +16°C° 0.2 mm 3 mps 748 mmHg 79%
    09:00 +17°C° 0.2 mm 2 mps 748 mmHg 77%
    10:00 +18°C° 0 mm 3 mps 748 mmHg 69%
    11:00 +19°C° 0 mm 3 mps 749 mmHg 61%
    12:00 +20°C° 0 mm 4 mps 749 mmHg 54%
    13:00 +21°C° 0 mm 4 mps 749 mmHg 52%
    14:00 +21°C° 0 mm 4 mps 749 mmHg 50%
    15:00 +21°C° 0 mm 4 mps 749 mmHg 49%
    16:00 +21°C° 0 mm 4 mps 749 mmHg 51%
    17:00 +20°C° 0 mm 3 mps 749 mmHg 54%
    18:00 +20°C° 0 mm 3 mps 749 mmHg 57%
    19:00 +18°C° 0 mm 3 mps 749 mmHg 61%
    20:00 +17°C° 0 mm 2 mps 750 mmHg 66%
    21:00 +16°C° 0 mm 2 mps 750 mmHg 70%
    22:00 +15°C° 0 mm 2 mps 750 mmHg 73%
    23:00 +15°C° 0 mm 2 mps 751 mmHg 75%

    Tomorrow, 21 June, Friday

    Time Temperature Precipitation Wind Pressure Humidity
    00:00 +14°C° 0 mm 2 mps 751 mmHg 78%
    01:00 +14°C° 0 mm 1 mps 751 mmHg 78%
    02:00 +13°C° 0 mm 1 mps 751 mmHg 79%
    03:00 +13°C° 0 mm 1 mps 751 mmHg 79%
    04:00 +13°C° 0 mm 1 mps 751 mmHg 77%
    05:00 +14°C° 0 mm 1 mps 752 mmHg 75%
    06:00 +14°C° 0 mm 1 mps 752 mmHg 74%
    07:00 +16°C° 0 mm 1 mps 752 mmHg 66%
    08:00 +18°C° 0 mm 1 mps 752 mmHg 58%
    09:00 +20°C° 0 mm 1 mps 752 mmHg 51%
    10:00 +20°C° 0 mm 2 mps 752 mmHg 48%
    11:00 +21°C° 0 mm 2 mps 752 mmHg 45%
    12:00 +21°C° 0 mm 2 mps 752 mmHg 42%
    13:00 +22°C° 0 mm 3 mps 752 mmHg 44%
    14:00 +22°C° 0 mm 3 mps 752 mmHg 45%
    15:00 +22°C° 0 mm 4 mps 752 mmHg 47%
    16:00 +21°C° 0 mm 4 mps 752 mmHg 52%
    17:00 +20°C° 0 mm 4 mps 752 mmHg 56%
    18:00 +19°C° 0 mm 4 mps 752 mmHg 61%
    19:00 +18°C° 0 mm 4 mps 752 mmHg 64%
    20:00 +16°C° 0 mm 3 mps 753 mmHg 67%
    21:00 +14°C° 0 mm 3 mps 753 mmHg 70%
    22:00 +13°C° 0 mm 3 mps 753 mmHg 70%
    23:00 +13°C° 0 mm 3 mps 753 mmHg 70%

    Day after tomorrow, 22 June, Saturday

    Time Temperature Precipitation Wind Pressure Humidity
    00:00 +13°C° 0 mm 2 mps 753 mmHg 69%
    01:00 +13°C° 0 mm 2 mps 752 mmHg 72%
    02:00 +12°C° 0 mm 2 mps 752 mmHg 75%
    03:00 +12°C° 0 mm 2 mps 752 mmHg 79%
    04:00 +12°C° 0 mm 2 mps 752 mmHg 78%
    05:00 +13°C° 0 mm 2 mps 752 mmHg 78%
    06:00 +14°C° 0 mm 2 mps 752 mmHg 77%
    07:00 +16°C° 0 mm 2 mps 752 mmHg 71%
    08:00 +18°C° 0 mm 3 mps 752 mmHg 64%
    09:00 +20°C° 0 mm 3 mps 752 mmHg 57%
    10:00 +21°C° 0 mm 3 mps 752 mmHg 54%
    11:00 +22°C° 0 mm 3 mps 752 mmHg 50%
    12:00 +25°C° 0 mm 3 mps 751 mmHg 46%
    13:00 +25°C° 0 mm 3 mps 751 mmHg 46%
    14:00 +26°C° 0 mm 3 mps 751 mmHg 47%
    15:00 +26°C° 0 mm 3 mps 750 mmHg 47%
    16:00 +25°C° 0 mm 3 mps 750 mmHg 50%
    17:00 +25°C° 0 mm 3 mps 750 mmHg 54%
    18:00 +24°C° 0 mm 3 mps 750 mmHg 58%
    19:00 +23°C° 0 mm 2 mps 750 mmHg 62%
    20:00 +21°C° 0 mm 2 mps 750 mmHg 66%
    21:00 +20°C° 0 mm 2 mps 750 mmHg 71%
    22:00 +19°C° 0 mm 2 mps 750 mmHg 73%
    23:00 +19°C° 0 mm 2 mps 750 mmHg 76%

    23 June, Sunday

    Time Temperature Precipitation Wind Pressure Humidity
    00:00 +19°C° 0 mm 2 mps 750 mmHg 79%
    01:00 +18°C° 0 mm 2 mps 750 mmHg 80%
    02:00 +18°C° 0 mm 2 mps 750 mmHg 81%
    03:00 +17°C° 0 mm 2 mps 750 mmHg 82%
    04:00 +18°C° 0 mm 2 mps 750 mmHg 80%
    05:00 +18°C° 0 mm 2 mps 750 mmHg 79%
    06:00 +19°C° 0 mm 2 mps 750 mmHg 78%
    07:00 +20°C° 0 mm 3 mps 750 mmHg 73%
    08:00 +22°C° 0 mm 3 mps 750 mmHg 67%
    09:00 +24°C° 0 mm 3 mps 750 mmHg 62%
    10:00 +25°C° 0 mm 3 mps 750 mmHg 59%
    11:00 +26°C° 0 mm 4 mps 750 mmHg 55%
    12:00 +27°C° 0 mm 4 mps 750 mmHg 52%
    13:00 +28°C° 0 mm 4 mps 750 mmHg 52%
    14:00 +28°C° 0 mm 4 mps 749 mmHg 52%
    15:00 +28°C° 0 mm 4 mps 749 mmHg 53%
    16:00 +28°C° 0 mm 4 mps 749 mmHg 56%
    17:00 +27°C° 0 mm 4 mps 749 mmHg 60%
    18:00 +26°C° 0 mm 3 mps 749 mmHg 63%
    19:00 +26°C° 0 mm 3 mps 749 mmHg 68%
    20:00 +25°C° 0 mm 3 mps 749 mmHg 72%
    21:00 +24°C° 0 mm 3 mps 749 mmHg 77%
    22:00 +22°C° 0 mm 3 mps 749 mmHg 80%
    23:00 +22°C° 0 mm 3 mps 749 mmHg 82%

    24 June, Monday

    Time Temperature Precipitation Wind Pressure Humidity
    00:00 +21°C° 0 mm 3 mps 749 mmHg 85%
    01:00 +21°C° 0 mm 2 mps 749 mmHg 86%
    02:00 +20°C° 0 mm 2 mps 749 mmHg 87%
    03:00 +20°C° 0 mm 2 mps 749 mmHg 89%
    04:00 +20°C° 0 mm 2 mps 749 mmHg 85%
    05:00 +21°C° 0 mm 2 mps 749 mmHg 82%
    06:00 +21°C° 0 mm 2 mps 749 mmHg 79%
    07:00 +24°C° 0 mm 2 mps 749 mmHg 71%
    08:00 +26°C° 0 mm 2 mps 750 mmHg 64%
    09:00 +28°C° 0 mm 3 mps 750 mmHg 56%
    10:00 +29°C° 0 mm 3 mps 750 mmHg 51%
    11:00 +31°C° 0 mm 3 mps 750 mmHg 46%
    12:00 +33°C° 0 mm 4 mps 749 mmHg 41%
    13:00 +34°C° 0 mm 4 mps 749 mmHg 42%
    14:00 +34°C° 0 mm 4 mps 749 mmHg 43%
    15:00 +34°C° 0 mm 4 mps 749 mmHg 43%
    16:00 +34°C° 0 mm 4 mps 749 mmHg 48%
    17:00 +33°C° 0 mm 4 mps 749 mmHg 53%
    18:00 +32°C° 0 mm 4 mps 748 mmHg 59%
    19:00 +30°C° 0 mm 4 mps 749 mmHg 64%
    20:00 +29°C° 0 mm 4 mps 749 mmHg 69%
    21:00 +27°C° 0 mm 4 mps 749 mmHg 74%
    22:00 +27°C° 0 mm 3 mps 749 mmHg 75%
    23:00 +26°C° 0 mm 3 mps 749 mmHg 77%

    25 June, Tuesday

    Time Temperature Precipitation Wind Pressure Humidity
    00:00 +25°C° 0 mm 3 mps 748 mmHg 79%
    01:00 +25°C° 0 mm 3 mps 748 mmHg 80%
    02:00 +24°C° 0 mm 2 mps 748 mmHg 81%
    03:00 +24°C° 0 mm 2 mps 748 mmHg 82%
    04:00 +24°C° 0 mm 2 mps 748 mmHg 79%
    05:00 +24°C° 0 mm 2 mps 749 mmHg 77%
    06:00 +25°C° 0 mm 2 mps 749 mmHg 74%
    07:00 +26°C° 0 mm 2 mps 750 mmHg 69%
    08:00 +28°C° 0 mm 2 mps 750 mmHg 63%
    09:00 +30°C° 0 mm 2 mps 750 mmHg 58%
    10:00 +31°C° 0 mm 2 mps 750 mmHg 54%
    11:00 +34°C° 0 mm 2 mps 751 mmHg 50%
    12:00 +35°C° 0 mm 2 mps 751 mmHg 47%
    13:00 +35°C° 0 mm 2 mps 751 mmHg 46%
    14:00 +35°C° 0 mm 2 mps 751 mmHg 44%
    15:00 +36°C° 0 mm 2 mps 751 mmHg 43%
    16:00 +35°C° 0 mm 2 mps 751 mmHg 46%
    17:00 +34°C° 0 mm 2 mps 751 mmHg 49%
    18:00 +34°C° 0 mm 2 mps 751 mmHg 52%
    19:00 +31°C° 0 mm 1 mps 752 mmHg 57%
    20:00 +30°C° 0 mm 1 mps 752 mmHg 61%
    21:00 +28°C° 0 mm 1 mps 753 mmHg 66%
    22:00 +27°C° 0 mm 1 mps 752 mmHg 71%
    23:00 +26°C° 0 mm 2 mps 752 mmHg 75%
    Show more